| time (UTC) | temp F | wind direction | speed knots | gust knots | rain 1hr in | rain 24hr in | rain mn in | humidity % | barometer mb |
| 20260503200820 | 60 | 162 | 3.5 | 10.4 | 0.00 | 0.00 | 0.00 | 44 | 1013.5 |
| 20260503195852 | 60 | 159 | 3.5 | 8.7 | 0.00 | 0.00 | 0.00 | 44 | 1013.5 |
| 20260503194833 | 60 | 150 | 4.3 | 8.7 | 0.00 | 0.00 | 0.00 | 43 | 1013.7 |
| 20260503193825 | 59 | 189 | 6.1 | 9.6 | 0.00 | 0.00 | 0.00 | 43 | 1014.1 |
| 20260503192816 | 60 | 200 | 2.6 | 10.4 | 0.00 | 0.00 | 0.00 | 45 | 1014.5 |
| 20260503191834 | 60 | 196 | 2.6 | 10.4 | 0.00 | 0.00 | 0.00 | 44 | 1014.5 |
| 20260503190824 | 60 | 194 | 5.2 | 10.4 | 0.00 | 0.00 | 0.00 | 43 | 1014.7 |
| 20260503185828 | 60 | 251 | 1.7 | 7.8 | 0.00 | 0.00 | 0.00 | 44 | 1014.8 |
| 20260503184830 | 60 | 186 | 4.3 | 9.6 | 0.00 | 0.00 | 0.00 | 46 | 1014.8 |
| 20260503183820 | 59 | 221 | 5.2 | 9.6 | 0.00 | 0.00 | 0.00 | 43 | 1015.0 |
| 20260503182837 | 60 | 171 | 2.6 | 13.0 | 0.00 | 0.00 | 0.00 | 41 | 1015.2 |
| 20260503181834 | 59 | 176 | 2.6 | 9.6 | 0.00 | 0.00 | 0.00 | 48 | 1015.2 |
| 20260503180825 | 58 | 199 | 5.2 | 11.3 | 0.00 | 0.00 | 0.00 | 43 | 1015.4 |
| 20260503175831 | 59 | 190 | 5.2 | 10.4 | 0.00 | 0.00 | 0.00 | 41 | 1015.5 |
| 20260503174832 | 59 | 173 | 3.5 | 11.3 | 0.00 | 0.00 | 0.00 | 43 | 1015.5 |
| 20260503173827 | 58 | 169 | 2.6 | 7.8 | 0.00 | 0.00 | 0.00 | 45 | 1015.7 |
| 20260503172819 | 58 | 183 | 3.5 | 9.6 | 0.00 | 0.00 | 0.00 | 46 | 1016.0 |
| 20260503171837 | 58 | 155 | 1.7 | 6.1 | 0.00 | 0.00 | 0.00 | 47 | 1016.3 |
| 20260503170828 | 58 | 159 | 1.7 | 7.8 | 0.00 | 0.00 | 0.00 | 44 | 1016.3 |
| 20260503150824 | 52 | 179 | 2.6 | 7.8 | 0.00 | 0.00 | 0.00 | 60 | 1017.9 |
| 20260503130820 | 42 | 159 | 2.6 | 6.1 | 0.00 | 0.00 | 0.00 | 74 | 1017.7 |
| 20260503110816 | 35 | 153 | 0.9 | 4.3 | 0.00 | 0.00 | 0.00 | 81 | 1017.0 |
| 20260503080819 | 37 | 360 | 0.0 | 1.7 | 0.00 | 0.00 | 0.00 | 80 | 1016.3 |
| 20260503072834 | 37 | 360 | 0.0 | 0.9 | 0.00 | 0.00 | 0.00 | 81 | 1016.2 |
| 20260503071826 | 37 | 360 | 0.0 | 0.9 | 0.00 | 0.00 | 0.00 | 81 | 1016.2 |
| 20260503070817 | 36 | 360 | 0.0 | 0.9 | 0.00 | 0.00 | 0.00 | 80 | 1016.2 |
| 20260503054829 | 37 | 360 | 0.0 | 0.0 | 0.00 | 0.00 | 0.00 | 79 | 1016.5 |
| 20260503053824 | 37 | 360 | 0.0 | 0.9 | 0.00 | 0.00 | 0.00 | 79 | 1016.5 |
| 20260503052815 | 37 | 360 | 0.0 | 0.0 | 0.00 | 0.00 | 0.00 | 79 | 1016.5 |
| 20260503051836 | 37 | 360 | 0.0 | 0.9 | 0.00 | 0.00 | 0.00 | 79 | 1016.5 |
| 20260503050825 | 37 | 360 | 0.0 | 0.0 | 0.00 | 0.00 | 0.00 | 79 | 1016.5 |
| 20260503045855 | 37 | 360 | 0.0 | 0.0 | 0.00 | 0.00 | 0.00 | 79 | 1016.6 |
| 20260503044835 | 37 | 360 | 0.0 | 0.0 | 0.00 | 0.00 | 0.00 | 79 | 1016.5 |
| 20260503043827 | 37 | 360 | 0.0 | 0.0 | 0.00 | 0.00 | 0.00 | 79 | 1016.5 |
| 20260503042819 | 38 | 360 | 0.0 | 0.0 | 0.00 | 0.00 | 0.00 | 78 | 1016.6 |
| 20260503041837 | 38 | 360 | 0.0 | 0.0 | 0.00 | 0.00 | 0.00 | 78 | 1016.6 |
| 20260503040833 | 38 | 360 | 0.0 | 0.0 | 0.00 | 0.00 | 0.00 | 77 | 1016.6 |
| 20260503035835 | 38 | 360 | 0.0 | 0.0 | 0.00 | 0.00 | 0.00 | 77 | 1016.7 |
| 20260503034819 | 39 | 360 | 0.0 | 0.0 | 0.00 | 0.00 | 0.00 | 77 | 1016.8 |
| 20260503033839 | 39 | 360 | 0.0 | 0.0 | 0.00 | 0.00 | 0.00 | 76 | 1016.8 |
| 20260503032832 | 39 | 360 | 0.0 | 0.0 | 0.00 | 0.00 | 0.00 | 75 | 1016.7 |
| 20260503031827 | 40 | 360 | 0.0 | 0.0 | 0.00 | 0.00 | 0.00 | 74 | 1016.7 |
| 20260503030819 | 41 | 360 | 0.0 | 0.0 | 0.00 | 0.00 | 0.00 | 73 | 1016.7 |
| 20260503025820 | 41 | 360 | 0.0 | 0.0 | 0.00 | 0.00 | 0.00 | 71 | 1016.6 |
| 20260503024845 | 42 | 360 | 0.0 | 0.0 | 0.00 | 0.00 | 0.00 | 68 | 1016.6 |
| 20260503023840 | 43 | 360 | 0.0 | 0.9 | 0.00 | 0.00 | 0.00 | 62 | 1016.6 |
| 20260503022832 | 43 | 360 | 0.0 | 0.0 | 0.00 | 0.00 | 0.00 | 61 | 1016.5 |
| 20260503021826 | 44 | 360 | 0.0 | 0.9 | 0.00 | 0.00 | 0.00 | 60 | 1016.4 |
| 20260503020817 | 44 | 360 | 0.0 | 0.9 | 0.00 | 0.00 | 0.00 | 59 | 1016.3 |
| 20260503015820 | 44 | 360 | 0.0 | 1.7 | 0.00 | 0.00 | 0.00 | 59 | 1016.2 |
| 20260503014824 | 45 | 5 | 0.9 | 2.6 | 0.00 | 0.00 | 0.00 | 58 | 1016.1 |
| 20260503013816 | 45 | 336 | 0.9 | 5.2 | 0.00 | 0.00 | 0.00 | 56 | 1015.9 |
| 20260503012835 | 45 | 355 | 0.9 | 3.5 | 0.00 | 0.00 | 0.00 | 56 | 1015.7 |
| 20260503011828 | 46 | 334 | 1.7 | 5.2 | 0.00 | 0.00 | 0.00 | 55 | 1015.6 |
| 20260503010823 | 46 | 293 | 1.7 | 5.2 | 0.00 | 0.00 | 0.00 | 54 | 1015.5 |
| 20260503005828 | 47 | 329 | 2.6 | 5.2 | 0.00 | 0.00 | 0.00 | 53 | 1015.5 |
| 20260503004830 | 47 | 310 | 2.6 | 7.8 | 0.00 | 0.00 | 0.00 | 52 | 1015.4 |
| 20260503003822 | 47 | 25 | 2.6 | 7.8 | 0.00 | 0.00 | 0.00 | 51 | 1015.3 |
| 20260503002841 | 48 | 330 | 3.5 | 7.0 | 0.00 | 0.00 | 0.00 | 50 | 1015.2 |
| 20260503001838 | 48 | 333 | 2.6 | 7.0 | 0.00 | 0.00 | 0.00 | 49 | 1015.0 |
| 20260503000828 | 49 | 311 | 3.5 | 7.0 | 0.00 | 0.00 | 0.00 | 48 | 1015.0 |
| 20260502235831 | 49 | 360 | 3.5 | 7.8 | 0.00 | 0.00 | 0.00 | 47 | 1014.8 |
| 20260502234833 | 49 | 336 | 2.6 | 8.7 | 0.00 | 0.00 | 0.00 | 47 | 1014.8 |
| 20260502233825 | 50 | 300 | 4.3 | 7.8 | 0.00 | 0.00 | 0.00 | 47 | 1014.8 |
| 20260502232818 | 50 | 302 | 2.6 | 8.7 | 0.00 | 0.00 | 0.00 | 46 | 1014.7 |
| 20260502231858 | 51 | 312 | 4.3 | 10.4 | 0.00 | 0.00 | 0.00 | 45 | 1014.7 |
| 20260502230828 | 51 | 360 | 2.6 | 7.8 | 0.00 | 0.00 | 0.00 | 45 | 1014.6 |
| 20260502225833 | 51 | 269 | 4.3 | 11.3 | 0.00 | 0.00 | 0.00 | 44 | 1014.6 |
| 20260502224816 | 51 | 342 | 3.5 | 9.6 | 0.00 | 0.00 | 0.00 | 43 | 1014.5 |
| 20260502223835 | 51 | 315 | 4.3 | 9.6 | 0.00 | 0.00 | 0.00 | 43 | 1014.6 |
| 20260502222855 | 52 | 297 | 2.6 | 11.3 | 0.00 | 0.00 | 0.00 | 42 | 1014.5 |
| 20260502221826 | 52 | 304 | 3.5 | 11.3 | 0.00 | 0.00 | 0.00 | 44 | 1014.6 |
| 20260502220817 | 51 | 323 | 3.5 | 7.8 | 0.00 | 0.00 | 0.00 | 42 | 1014.4 |
| 20260502215821 | 51 | 300 | 2.6 | 7.0 | 0.00 | 0.00 | 0.00 | 42 | 1014.4 |
| 20260502214825 | 51 | 293 | 4.3 | 10.4 | 0.00 | 0.00 | 0.00 | 42 | 1014.4 |
| 20260502213816 | 52 | 288 | 6.1 | 12.2 | 0.00 | 0.00 | 0.00 | 40 | 1014.4 |
| 20260502212836 | 52 | 302 | 4.3 | 11.3 | 0.00 | 0.00 | 0.00 | 41 | 1014.4 |
| 20260502211828 | 52 | 281 | 4.3 | 11.3 | 0.00 | 0.00 | 0.00 | 42 | 1014.3 |
| 20260502210817 | 53 | 279 | 2.6 | 14.8 | 0.00 | 0.00 | 0.00 | 42 | 1014.3 |
| 20260502205819 | 53 | 273 | 5.2 | 14.8 | 0.00 | 0.00 | 0.00 | 41 | 1014.2 |
| 20260502204821 | 53 | 301 | 4.3 | 12.2 | 0.00 | 0.00 | 0.00 | 40 | 1014.3 |
| 20260502203840 | 54 | 24 | 6.1 | 11.3 | 0.00 | 0.00 | 0.00 | 40 | 1014.2 |
| 20260502202831 | 55 | 321 | 3.5 | 8.7 | 0.00 | 0.00 | 0.00 | 42 | 1014.2 |
| 20260502201823 | 53 | 330 | 4.3 | 13.0 | 0.00 | 0.00 | 0.00 | 42 | 1014.4 |